TimeCDT,TemperatureF,Dew PointF,Humidity,Sea Level PressureIn,VisibilityMPH,Wind Direction,Wind SpeedMPH,Gust SpeedMPH,PrecipitationIn,Events,Conditions,WindDirDegrees,DateUTC
12:15 AM,62.2,57.7,85,29.98,10.0,NNW,4.6,-,N/A,,Clear,330,2013-09-02 05:15:00
12:35 AM,62.1,57.4,85,29.98,10.0,NW,4.6,-,N/A,,Clear,320,2013-09-02 05:35:00
12:55 AM,62.1,57.2,84,29.99,10.0,NW,4.6,-,N/A,,Clear,310,2013-09-02 05:55:00
1:15 AM,60.8,56.7,86,29.99,10.0,NW,3.5,-,N/A,,Clear,310,2013-09-02 06:15:00
1:35 AM,60.3,56.5,87,29.99,10.0,NW,4.6,-,N/A,,Clear,310,2013-09-02 06:35:00
1:55 AM,60.1,56.3,87,29.99,10.0,NW,5.8,-,N/A,,Clear,320,2013-09-02 06:55:00
2:15 AM,59.9,56.3,88,29.99,10.0,NW,6.9,-,N/A,,Clear,320,2013-09-02 07:15:00
2:35 AM,59.7,55.9,87,29.99,10.0,NW,5.8,-,N/A,,Clear,320,2013-09-02 07:35:00
2:55 AM,59.0,55.9,90,29.99,10.0,NW,5.8,-,N/A,,Clear,320,2013-09-02 07:55:00
3:15 AM,59.0,56.1,90,30.00,10.0,NW,4.6,-,N/A,,Clear,310,2013-09-02 08:15:00
3:35 AM,58.5,55.8,91,30.00,10.0,NW,3.5,-,N/A,,Clear,310,2013-09-02 08:35:00
3:55 AM,57.9,55.6,92,30.01,10.0,WNW,3.5,-,N/A,,Clear,300,2013-09-02 08:55:00
4:15 AM,57.9,55.4,91,30.00,10.0,NW,4.6,-,N/A,,Clear,310,2013-09-02 09:15:00
4:35 AM,57.6,55.2,92,30.01,10.0,NW,5.8,-,N/A,,Clear,310,2013-09-02 09:35:00
4:55 AM,57.2,54.9,92,30.01,10.0,NW,3.5,-,N/A,,Clear,310,2013-09-02 09:55:00
5:15 AM,56.7,54.5,92,30.01,10.0,Calm,Calm,-,N/A,,Clear,0,2013-09-02 10:15:00
5:35 AM,55.9,53.8,92,30.02,10.0,Calm,Calm,-,N/A,,Clear,0,2013-09-02 10:35:00
5:55 AM,55.6,53.6,93,30.02,10.0,WNW,3.5,-,N/A,,Clear,300,2013-09-02 10:55:00
6:15 AM,55.9,54.0,93,30.02,10.0,WNW,3.5,-,N/A,,Clear,300,2013-09-02 11:15:00
6:35 AM,55.6,53.6,93,30.03,10.0,Calm,Calm,-,N/A,,Clear,0,2013-09-02 11:35:00
6:55 AM,55.4,53.6,94,30.04,10.0,NW,3.5,-,N/A,,Clear,310,2013-09-02 11:55:00
7:15 AM,55.8,53.8,93,30.04,10.0,NW,3.5,-,N/A,,Clear,310,2013-09-02 12:15:00
7:35 AM,56.3,54.5,94,30.04,10.0,NNW,5.8,-,N/A,,Clear,330,2013-09-02 12:35:00
7:55 AM,57.2,55.0,92,30.05,10.0,NNW,8.1,-,N/A,,Clear,330,2013-09-02 12:55:00
8:15 AM,58.5,55.6,90,30.05,10.0,North,5.8,-,N/A,,Scattered Clouds,350,2013-09-02 13:15:00
8:35 AM,59.9,56.1,87,30.06,10.0,North,4.6,-,N/A,,Clear,350,2013-09-02 13:35:00
8:55 AM,60.8,56.1,85,30.06,10.0,North,6.9,-,N/A,,Clear,350,2013-09-02 13:55:00
9:15 AM,62.8,57.2,82,30.07,10.0,NW,4.6,-,N/A,,Clear,320,2013-09-02 14:15:00
9:35 AM,63.9,57.0,78,30.07,10.0,NNW,6.9,-,N/A,,Clear,330,2013-09-02 14:35:00
9:55 AM,64.8,56.7,75,30.07,10.0,North,6.9,-,N/A,,Clear,360,2013-09-02 14:55:00
10:15 AM,65.7,56.8,73,30.07,10.0,North,5.8,-,N/A,,Clear,360,2013-09-02 15:15:00
10:35 AM,67.5,57.4,70,30.07,10.0,North,8.1,-,N/A,,Clear,360,2013-09-02 15:35:00
10:55 AM,67.8,56.5,67,30.07,10.0,NW,8.1,-,N/A,,Clear,320,2013-09-02 15:55:00
11:15 AM,69.1,56.5,64,30.07,10.0,North,9.2,-,N/A,,Clear,350,2013-09-02 16:15:00
11:35 AM,70.0,56.8,63,30.07,10.0,NNW,8.1,-,N/A,,Scattered Clouds,330,2013-09-02 16:35:00
11:55 AM,70.7,56.1,60,30.07,10.0,NNW,6.9,-,N/A,,Clear,340,2013-09-02 16:55:00
12:15 PM,71.6,55.6,57,30.07,10.0,NNW,10.4,-,N/A,,Clear,340,2013-09-02 17:15:00
12:35 PM,72.9,54.7,53,30.06,10.0,NW,10.4,-,N/A,,Clear,310,2013-09-02 17:35:00
12:55 PM,72.9,54.7,53,30.06,10.0,NNW,10.4,-,N/A,,Clear,330,2013-09-02 17:55:00
1:15 PM,74.1,54.0,49,30.06,10.0,NNW,6.9,-,N/A,,Clear,330,2013-09-02 18:15:00
1:35 PM,74.3,54.9,51,30.05,10.0,NNW,6.9,-,N/A,,Clear,330,2013-09-02 18:35:00
1:55 PM,75.2,54.9,49,30.05,10.0,North,6.9,-,N/A,,Clear,360,2013-09-02 18:55:00
2:15 PM,75.7,55.2,49,30.04,10.0,NNW,8.1,16.1,N/A,,Clear,330,2013-09-02 19:15:00
2:35 PM,75.9,54.0,46,30.03,10.0,North,9.2,-,N/A,,Clear,10,2013-09-02 19:35:00
2:55 PM,76.3,53.4,45,30.03,10.0,North,6.9,-,N/A,,Clear,350,2013-09-02 19:55:00
3:15 PM,76.5,52.0,42,30.03,10.0,North,6.9,-,N/A,,Clear,10,2013-09-02 20:15:00
3:35 PM,76.5,52.3,43,30.02,10.0,NNW,4.6,-,N/A,,Clear,330,2013-09-02 20:35:00
3:55 PM,77.0,53.6,44,30.02,7.0,NNW,8.1,-,N/A,,Clear,330,2013-09-02 20:55:00
4:15 PM,77.2,52.3,42,30.01,10.0,NW,6.9,-,N/A,,Clear,320,2013-09-02 21:15:00
4:35 PM,77.4,53.1,43,30.01,10.0,NNW,8.1,-,N/A,,Clear,340,2013-09-02 21:35:00
4:55 PM,77.2,51.4,41,30.01,7.0,NW,6.9,-,N/A,,Clear,320,2013-09-02 21:55:00
5:15 PM,77.0,51.8,41,30.01,10.0,NNW,6.9,-,N/A,,Clear,330,2013-09-02 22:15:00
5:35 PM,76.8,49.1,38,30.01,10.0,NNW,9.2,-,N/A,,Clear,340,2013-09-02 22:35:00
5:55 PM,76.1,46.9,36,30.02,7.0,NW,8.1,-,N/A,,Clear,320,2013-09-02 22:55:00
6:15 PM,75.2,48.4,39,30.02,10.0,North,5.8,-,N/A,,Clear,350,2013-09-02 23:15:00
6:35 PM,74.3,48.4,40,30.01,10.0,NNW,8.1,-,N/A,,Clear,340,2013-09-02 23:35:00
6:55 PM,72.7,51.3,47,30.01,7.0,North,4.6,-,N/A,,Clear,350,2013-09-02 23:55:00
7:15 PM,70.3,53.8,56,30.01,10.0,NNW,3.5,-,N/A,,Clear,340,2013-09-03 00:15:00
7:35 PM,68.2,53.1,58,30.02,10.0,Calm,Calm,-,N/A,,Clear,0,2013-09-03 00:35:00
7:55 PM,67.3,52.7,59,30.02,10.0,NNW,4.6,-,N/A,,Clear,330,2013-09-03 00:55:00
8:15 PM,64.2,55.0,72,30.02,10.0,NNW,3.5,-,N/A,,Clear,330,2013-09-03 01:15:00
8:23 PM,64.4,53.6,68,30.02,10.0,NNW,3.5,-,N/A,,Clear,340,2013-09-03 01:23:00
8:35 PM,64.0,53.2,68,30.02,10.0,NNW,3.5,-,N/A,,Clear,330,2013-09-03 01:35:00
8:43 PM,62.6,51.8,68,30.02,10.0,NNW,3.5,-,N/A,,Clear,330,2013-09-03 01:43:00
8:55 PM,64.2,51.4,63,30.02,10.0,NNW,4.6,-,N/A,,Clear,340,2013-09-03 01:55:00
9:15 PM,62.1,52.5,71,30.03,10.0,North,3.5,-,N/A,,Clear,350,2013-09-03 02:15:00
9:23 PM,60.8,51.8,72,30.03,10.0,Calm,Calm,-,N/A,,Clear,0,2013-09-03 02:23:00
9:35 PM,63.0,51.6,66,30.04,10.0,Calm,Calm,-,N/A,,Clear,0,2013-09-03 02:35:00
9:55 PM,57.7,53.8,87,30.04,10.0,North,3.5,-,N/A,,Clear,10,2013-09-03 02:55:00
10:15 PM,58.5,52.0,79,30.04,10.0,Calm,Calm,-,N/A,,Clear,0,2013-09-03 03:15:00
10:35 PM,58.1,52.2,81,30.04,10.0,North,3.5,-,N/A,,Clear,360,2013-09-03 03:35:00
10:43 PM,55.4,51.8,88,30.05,10.0,North,3.5,-,N/A,,Clear,360,2013-09-03 03:43:00
10:55 PM,57.9,52.0,81,30.04,10.0,North,3.5,-,N/A,,Clear,10,2013-09-03 03:55:00
11:03 PM,57.2,51.8,82,30.04,10.0,North,4.6,-,N/A,,Clear,360,2013-09-03 04:03:00
11:15 PM,57.2,51.8,82,30.04,10.0,North,4.6,-,N/A,,Clear,360,2013-09-03 04:15:00
11:35 PM,57.4,51.1,79,30.05,10.0,Calm,Calm,-,N/A,,Clear,0,2013-09-03 04:35:00
11:55 PM,57.7,51.4,79,30.05,10.0,Calm,Calm,-,N/A,,Clear,0,2013-09-03 04:55:00